TimeCST,TemperatureF,Dew PointF,Humidity,Sea Level PressureIn,VisibilityMPH,Wind Direction,Wind SpeedMPH,Gust SpeedMPH,PrecipitationIn,Events,Conditions,WindDirDegrees,DateUTC
12:00 AM,71,70,97,,6,Calm,Calm,,,,Partly Cloudy,,2012-11-07 06:00:00
1:00 AM,71.6,69.8,94,-9999,6.2,Calm,Calm,-,N/A,,Scattered Clouds,0,2012-11-07 07:00:00
2:00 AM,71.6,69.8,94,-9999,6.2,Calm,Calm,-,N/A,,Scattered Clouds,0,2012-11-07 08:00:00
3:00 AM,69,68,97,,6,Calm,Calm,,,,Partly Cloudy,,2012-11-07 09:00:00
3:00 AM,69.8,68.0,94,-9999,6.2,Calm,Calm,-,N/A,,Mostly Cloudy,0,2012-11-07 09:00:00
4:00 AM,69.8,68.0,94,-9999,6.2,Calm,Calm,-,N/A,,Mostly Cloudy,0,2012-11-07 10:00:00
5:00 AM,66.2,66.2,100,-9999,6.2,Calm,Calm,-,N/A,,Overcast,0,2012-11-07 11:00:00
6:00 AM,70,68,92,,9,Calm,Calm,,,,Partly Cloudy,,2012-11-07 12:00:00
6:00 AM,69.8,68.0,94,-9999,6.2,Calm,Calm,-,N/A,,Mostly Cloudy,0,2012-11-07 12:00:00
7:00 AM,71.6,69.8,94,-9999,6.2,South,3.5,-,N/A,,Mostly Cloudy,190,2012-11-07 13:00:00
8:00 AM,73.4,69.8,88,-9999,6.2,East,3.5,-,N/A,,Mostly Cloudy,100,2012-11-07 14:00:00
9:00 AM,75,71,82,,9,SE,6.9,,,,Haze,130,2012-11-07 15:00:00
9:00 AM,75.2,69.8,83,-9999,6.2,SE,6.9,-,N/A,,Scattered Clouds,130,2012-11-07 15:00:00
10:00 AM,78.8,69.8,74,-9999,6.2,South,5.8,-,N/A,,Scattered Clouds,180,2012-11-07 16:00:00
11:00 AM,80.6,69.8,70,-9999,6.2,WSW,8.1,-,N/A,,Mostly Cloudy,240,2012-11-07 17:00:00
12:00 PM,83,71,59,,9,SSE,5.8,,,,Haze,160,2012-11-07 18:00:00
12:00 PM,82.4,71.6,70,-9999,6.2,SSE,5.8,-,N/A,,Mostly Cloudy,160,2012-11-07 18:00:00
1:00 PM,80.6,69.8,70,-9999,6.2,West,6.9,-,N/A,,Mostly Cloudy,280,2012-11-07 19:00:00
2:00 PM,82.4,71.6,70,-9999,6.2,SSW,4.6,-,N/A,,Mostly Cloudy,200,2012-11-07 20:00:00
3:00 PM,80,70,64,,11,ESE,5.8,,,,Haze,120,2012-11-07 21:00:00
3:00 PM,80.6,69.8,70,-9999,6.2,ESE,5.8,-,N/A,,Mostly Cloudy,120,2012-11-07 21:00:00
4:00 PM,80.6,69.8,70,-9999,6.2,South,4.6,-,N/A,,Mostly Cloudy,180,2012-11-07 22:00:00
5:00 PM,78.8,69.8,74,-9999,6.2,North,2.3,-,N/A,,Mostly Cloudy,350,2012-11-07 23:00:00
6:00 PM,77,68,68,,9,NNE,3.5,,,,Haze,20,2012-11-08 00:00:00
6:00 PM,77.0,68.0,74,-9999,6.2,NNE,3.5,-,N/A,,Mostly Cloudy,20,2012-11-08 00:00:00
7:00 PM,75.2,68.0,78,-9999,6.2,NE,2.3,-,N/A,,Mostly Cloudy,50,2012-11-08 01:00:00
8:00 PM,73.4,68.0,83,-9999,6.2,NNW,4.6,-,N/A,,Mostly Cloudy,340,2012-11-08 02:00:00
9:00 PM,72,68,83,,6,SSE,3.5,,,,Haze,160,2012-11-08 03:00:00
9:00 PM,73.4,68.0,83,-9999,6.2,SSE,3.5,-,N/A,,Mostly Cloudy,160,2012-11-08 03:00:00
10:00 PM,71.6,68.0,88,-9999,6.2,SSW,4.6,-,N/A,,Scattered Clouds,200,2012-11-08 04:00:00
11:00 PM,71.6,68.0,88,-9999,6.2,East,3.5,-,N/A,,Mostly Cloudy,90,2012-11-08 05:00:00